CZ-6A DEB, 61403

Orbit data source: Space-Track

CZ-6A DEB, 61403 is space debris in LEO originally from a launch on Tue, 06 Aug 2024 UTC launched from the Taiyaun Space Center, China (TSC). Debris objects in space refer to the collection of defunct objects orbiting the Earth. Examples of debris include non-operational satellites, rocket bodies, and fragments generated from explosions, collisions, or faulty payload assembly.

Loading next visibility...
Identifier
61403, 2024-140XU
Orbit
LEO
Country
Flag of CNCN / PRC
Related business
Manufacturer
SAST
Mission
Spacecraft
Bus & Motor
Unknown
Mass
Unknown
Launch date (UTC)
2024-08-06 (2 years ago)
Launch vehicle
Unknown
Launch site
Taiyaun Space Center, China (TSC)
Object type
Payload
Rocket body
Debris
Shape & HBR
Unknown shape, 1.1 m
Radar Cross Section
Medium (>0.1 m² and <1 m²)

Expand to show TLE details & history
Last TLE update: 17 hours ago

TLE from 17 hours ago
0 CZ-6A DEB
1 61403U 24140XU  26171.28506147  .00001611  00000-0  65677-3 0  9998
2 61403  88.9495 269.6090 0034476 162.4232 197.8164 14.26676114 92426
Epoch: 2026-06-20T06:50Z
TLE epoch observation values (Epoch: 2026-06-20T06:50:29.311Z)
Latitude
-0.00002°
Longitude
-101.51501°
Altitude
829.508 km
Speed
7.426 km/s
True Right ascension
17h 58m 26s
True Declination
0° 00' 00"
Sunlit
Object was in full shadow at epoch
Visualization orbit readout
Latitude
Unknown
Longitude
Unknown
Altitude
Unknown
Speed
Unknown
Apparent Right ascension
Unknown
Apparent Declination
Unknown
Sunlit
N/A
Visualization observer readout
Local Sidereal Time
10:19:33
Azimuth
Unknown
Elevation
Unknown
Doppler factor
Unknown
Orbital elements
Apogee altitude
824.551 km
Perigee altitude
775.058 km
Semi-major axis
7,177.942 km
Eccentricity
0.00345
Inclination
88.9495°
RAAN
269.609°
Arg. of periapsis
162.4232°
True anomaly
197.69602°
Mean anomaly
197.8164°
Eccentric anomaly
197.75616°
Mean motion
3.56897 °/min
Orbital period
100.87 mins
BSTAR
0.00065677
Loading maneuver chart data...
Computing Atmospheric mass density...
Loading historical data...
Loading historical data...
Loading historical data...
Loading historical data...
Loading historical data...
Loading historical data...
Loading historical data...

Documentation

Showing up to 5 results
|